Regional Weather Roundup
Issued by NWS

Home | Current Version | Previous Version | Text Only | Print | Product List | Glossary On
Versions: 1 2 3 4 5 6 7 8 9 10 11 12 13 14 15 16 17 18 19 20 21 22 23 24 25 26 27 28 29 30 31 32 33 34 35 36 37 38 39 40 41 42 43 44 45 46 47 48 49 50
000
ASUS43 KLOT 041108
RWRIL

ILLINOIS REGIONAL WEATHER ROUNDUP
NATIONAL WEATHER SERVICE CHICAGO/ROMEOVILLE IL
600 AM CDT WED MAY 04 2016

NOTE: "FAIR" INDICATES FEW OR NO CLOUDS BELOW 12,000 FEET WITH NO
SIGNIFICANT WEATHER AND/OR OBSTRUCTIONS TO VISIBILITY.

* THESE STATIONS ARE NOT UNDER NWS QUALITY CONTROL. THEY ALSO MAY NOT
  REPORT WEATHER SUCH AS PRECIPITATION OR FOG.

ILZ001-002-007-009-015-016-024-041200-
NORTHWEST ILLINOIS

CITY           SKY/WX    TMP DP  RH WIND       PRES   REMARKS
MOLINE         CLEAR     48  45  89 N7        29.74R
STERLING*      CLEAR     46  45  93 N10       29.74R
SAVANNA*       CLEAR     46  45  95 NW6       29.75R
$$

ILZ003-004-008-010-011-017-018-041200-
NORTH CENTRAL ILLINOIS

CITY           SKY/WX    TMP DP  RH WIND       PRES   REMARKS
ROCKFORD       CLOUDY    47  44  90 N13       29.75R
FREEPORT*      CLEAR     44  42  94 N8        29.76R
ROCHELLE*      PTCLDY    45  43  94 N13       29.72R
DE KALB*       MOCLDY    46  45  96 N12       29.71R
$$

ILZ005-006-012>014-019>023-041200-
NORTHEAST ILLINOIS

CITY           SKY/WX    TMP DP  RH WIND       PRES   REMARKS
CHICAGO-OHARE  LGT RAIN  45  40  82 N21G32    29.67R
CHICAGO-MIDWAY LGT RAIN  48  44  86 N18       29.67R
AURORA         PTCLDY    48  45  89 NW15      29.69R
LANSING*       CLOUDY    47  45  93 N8        29.66R
JOLIET*        MOCLDY    49  47  90 NW7       29.68R
WAUKEGAN       CLOUDY    45  40  82 N10G20    29.69R
DUPAGE AIRPORT MOCLDY    48  44  86 NW14      29.68R
KANKAKEE*      CLOUDY    49  46  88 NW9       29.67R
WHEELING       CLOUDY    45  40  82 N12G23    29.70R
MORRIS*        CLOUDY    48  46  90 NW7       29.68R
ROMEOVILLE*    CLOUDY    48  45  88 NW13      29.67R
NORTHERLY ISL    N/A     45  42  89 MISG        N/A
NORTHERLY ISL    N/A     45  42  89 MISG        N/A
$$

LMZ740>746-041200-
SOUTHERN LAKE MICHIGAN

STATION/POSITION SKY/WX   TEMP    WIND        PRES    VSBY  WAVE
                          AIR SEA DIR/SP/G                  HT/PER
                          (F)     (DEG/KT/KT) (MB)    (MI)  (FT/S)
SOUTHERN BUOY              42 41  360/ 23/ 29 1003.4R         3/ 4
WILMETTE HARBOR            44 45   40/ 23/ 33   N/A           4/ 3
HARRISON CRIB              46     360/ 14/ 15   N/A
BURNHAM HARBOR             45     350/ 16/ 21   N/A
CALUMET HARBOR             46     330/ 13/ 19 1003.4R
BURNS HARBOR               47     360/ 16/ 20 1003.7R
MICHIGAN CITY              45     330/ 22/ 23   N/A
ST. JOSEPH                 45 48                N/A           3/ 3
$$

ILZ025>027-034>036-040-047-049-050-058-095>099-041200-
WEST-CENTRAL ILLINOIS

CITY           SKY/WX    TMP DP  RH WIND       PRES   REMARKS
QUINCY         CLEAR     53  44  71 NW12      29.71R
GALESBURG*     FOG       43  43  99 NW5       29.73R VSB 1/2
MACOMB*        CLEAR     46  45  99 N6        29.74R
JACKSONVILLE*  PTCLDY    50  46  85 NW3       29.69R
PITTSFIELD*    PTCLDY    56  46  69 W7        29.71R
$$

ILZ028>032-037-038-041>044-048-051>054-059>061-041200-
CENTRAL ILLINOIS

CITY           SKY/WX    TMP DP  RH WIND       PRES   REMARKS
PONTIAC        CLEAR     47  47  99 NW6       29.70R
BLOOMINGTON    MOCLDY    49  49 100 N10       29.70R
DECATUR        CLOUDY    51  48  89 W5        29.68F
PEORIA         FOG       47  45  93 N5        29.71R VSB 3/4
LACON*         CLEAR     45  44  97 N5        29.71R
LINCOLN*       PTCLDY    51  51  99 CALM      29.68R
SPRINGFIELD    PTCLDY    50  47  89 CALM      29.68F
TAYLORVILLE    CLOUDY    51  47  87 S6        29.68F
$$

ILZ033-039-045-046-055>057-062-063-041200-
EAST-CENTRAL ILLINOIS

CITY           SKY/WX    TMP DP  RH WIND       PRES   REMARKS
CHAMPAIGN      CLOUDY    50  50 100 W8        29.67S
RANTOUL*       PTCLDY    51  49  94 NW7       29.68R
MATTOON        LGT RAIN  50  47  89 SW5       29.70F
PARIS*         LGT RAIN  50  49  97 SW10      29.68F
$$

ILZ079-100>102-041200-
SOUTHWEST ILLINOIS

CITY           SKY/WX    TMP DP  RH WIND       PRES   REMARKS
ALTON          CLOUDY    54  47  77 SW9       29.70F
BELLEVILLE     LGT RAIN  54  48  82 W9        29.73R
CAHOKIA*       LGT RAIN  55  45  68 S8        29.71F
SPARTA*        CLOUDY    54  44  68 SW9       29.75F
$$

ILZ064>066-069>071-074>076-080>082-084>086-088>090-092>094-041200-
SOUTH-CENTRAL ILLINOIS

CITY           SKY/WX    TMP DP  RH WIND       PRES   REMARKS
CARBONDALE     CLOUDY    50  44  80 S7        29.77F
CAIRO*         CLEAR     53  48  86 SW7       29.82F
EFFINGHAM*     RAIN      51  50  94 S5        29.73S
MARION         PTCLDY    54  46  76 SW8       29.77F
MT. VERNON     CLOUDY    52  45  76 SW9       29.73F
CENTRALIA*     RAIN      54  47  78 W7        29.73R
SALEM*         LGT RAIN  53  46  77 SW9       29.73R
METROPOLIS*    CLEAR     51  49  92 SW7       29.83S
$$

ILZ067-068-072-073-078-083-087-091-041200-
SOUTHEAST ILLINOIS

CITY           SKY/WX    TMP DP  RH WIND       PRES   REMARKS
LAWRENCEVILLE  LGT RAIN  53  46  77 SW12      29.73F
FLORA*         CLOUDY    55  45  68 W8        29.73R
FAIRFIELD*     CLOUDY    53  46  77 SW7       29.72F
HARRISBURG*    CLEAR     51  46  83 SW8       29.77F
ROBINSON*      RAIN      50  47  90 W13G22    29.76R
CARMI*         PTCLDY    53  45  74 SW12      29.74F
$$

ABBREVIATIONS USED IN REMARKS
   TC - TEMPERATURE IN CELSIUS
  WCI - WIND CHILL INDEX
   HX - HEAT INDEX
  VSB - VISIBILITY
$$





USA.gov is the U.S. government's official web portal to all federal, state and local government web resources and services.